Location: Madrid
(40.4000°N, 3.6830°W)
Time: 18:25:10
(UTC+01:00)

ISS - Pass Details

Date: 19 January 2020
Orbit: 415 x 422 km, 51.6° (Epoch: 23 January)

Event Time Altitude Azimuth Distance (km) Brightness Sun altitude
Rises 20:41:01 0° 236° (SW) 2,358 1.0 -27.2°
Reaches altitude 10° 20:43:06 10° 238° (WSW) 1,496 -0.2 -27.5°
Enters shadow 20:44:13 19° 240° (WSW) 1,054 -1.1 -27.8°
